Regional Weather Roundup
Issued by NWS

Home | Current Version | Previous Version | Graphics & Text | Print | Product List | Glossary On
Versions: 1 2 3 4 5 6 7 8 9 10 11 12 13 14 15 16 17 18 19 20 21 22 23 24 25 26 27 28 29 30 31 32 33 34 35 36 37 38 39 40 41 42 43 44 45 46 47 48 49 50
000
ASUS44 KMEG 251500
RWRTN
TENNESSEE HOURLY STATE WEATHER ROUNDUP
NATIONAL WEATHER SERVICE MEMPHIS TN
1000 AM CDT SAT APR 25 2015

TNZ002-004-019-021-049-052-054-088>092-251600-
WEST TENNESSEE

CITY           SKY/WX    TMP DP  RH WIND       PRES   REMARKS
MEMPHIS INTL   CLOUDY    67  63  87 SW13G26   29.66S
NWS MEMPHIS      N/A     66 N/A N/A MISG        N/A
JACKSON        CLOUDY    69  62  78 SW14G23   29.65F
DYERSBURG      CLOUDY    66  52  59 SW13      29.64S
UNION CITY     CLOUDY    66  32  28 SW14      29.61S
PARIS          MOSUNNY   68  61  77 S13       29.64F
LEXINGTON      PTSUNNY   66  63  88 S9        29.66F
SAVANNAH       SUNNY     66  32  28 SW9       29.70S
$$

TNZ008-025-027-028-033-062-065-066-251600-
NORTH MIDDLE TENNESSEE

CITY           SKY/WX    TMP DP  RH WIND       PRES   REMARKS
NASHVILLE      CLOUDY    66  60  81 S9        29.70F
CLARKSVILLE    PTSUNNY   65  59  81 S10       29.66F
COOKEVILLE     PTSUNNY   64  59  82 SW5       29.72R
CROSSVILLE     CLOUDY    59  54  83 S9        29.76F
$$

TNZ061-075-076-078-094-096-097-251600-
SOUTH MIDDLE TENNESSEE

CITY           SKY/WX    TMP DP  RH WIND       PRES   REMARKS
FAYETTEVILLE   MOSUNNY   66  61  82 SW12      29.73S
TULLAHOMA      SUNNY     66  61  82 S13       29.72S
WINCHESTER     SUNNY     70  63  78 S15       29.73F
MCMINNVILLE    SUNNY     70  64  83 VRB6      29.71F
COLUMBIA       MOSUNNY   70  32  24 S13       29.68R
SHELBYVILLE    SUNNY     70  63  78 S18       29.72R
$$

TNZ017-018-042-046-047-251600-
NORTHEAST TENNESSEE

CITY           SKY/WX    TMP DP  RH WIND       PRES   REMARKS
TRI CITIES     CLOUDY    55  44  66 N5        29.79R
ELIZABETHTON   CLOUDY    54  45  71 E5        29.78R
$$

TNZ012-013-036-069-073-074-251600-
CENTRAL EAST TENNESSEE

CITY           SKY/WX    TMP DP  RH WIND       PRES   REMARKS
KNOXVILLE      CLOUDY    57  50  77 N8        29.78R
OAK RIDGE      CLOUDY    56  52  86 CALM      29.79S
GATLINBURG     MOSUNNY   54  46  76 N5        29.77R
$$

TNZ083-085-099-251600-
SOUTHEAST TENNESSEE

CITY           SKY/WX    TMP DP  RH WIND       PRES   REMARKS
CHATTANOOGA    CLOUDY    61  58  90 S10       29.77F FOG
$$

SKY/WX REPORTED AS FAIR MEANS FEW OR NO CLOUDS BELOW
12 THOUSAND FEET.



USA.gov is the U.S. government's official web portal to all federal, state and local government web resources and services.